STARLINK-36348

Last updated on Mon Mar 23 2026 00:02:07 GMT+0000 (Coordinated Universal Time)

1 67851U 26034B 26081.16668981 -.01904132 00000+0 -23468-1 0 9999 2 67851 53.1589 149.1057 0001070 71.7451 43.0248 15.62789463 5861
UTC large
Height (km)
Speed (km/s)
/
Latitude / Longitude
Inclination (degrees)
Orbital Period (minutes)
Azimuth
Elevation
Range (km)
Doppler Factor

Next 0 passes for location: London (51.5072 / 0.1276)

Sorry there are no passes over London.